When you browse on this site, cookies collect data to enhance your experience and personalize the content and advertising you see.
Visit our Privacy Policy to learn more. By continuing to use the site, you agree to this use of cookies and data.
  • In Hungary
  • List of Countries
  • For 7 days
  • Water Temperature
  • Satellite Maps
  • Weather Map
  • News
  • Weather Widgets
  • user-avatar
    Login

    Hourly Weather Belozerka

    Today, 18 November, Sunday

    Time Temperature Precipitation Wind Pressure Humidity
    00:00 0°C° 0 mm 3 mps 772 mmHg 71%
    01:00 -1°C° 0 mm 3 mps 772 mmHg 73%
    02:00 -1°C° 0 mm 3 mps 772 mmHg 74%
    03:00 -1°C° 0 mm 3 mps 771 mmHg 75%
    04:00 -2°C° 0 mm 3 mps 771 mmHg 76%
    05:00 -2°C° 0 mm 3 mps 771 mmHg 76%
    06:00 -2°C° 0 mm 3 mps 771 mmHg 75%
    07:00 -2°C° 0 mm 3 mps 770 mmHg 73%
    08:00 -2°C° 0 mm 3 mps 770 mmHg 72%
    09:00 +1°C° 0 mm 2 mps 770 mmHg 68%
    10:00 +3°C° 0 mm 1 mps 770 mmHg 63%
    11:00 +4°C° 0 mm 1 mps 769 mmHg 59%
    12:00 +5°C° 0 mm 1 mps 769 mmHg 58%
    13:00 +5°C° 0 mm 1 mps 768 mmHg 57%
    14:00 +5°C° 0 mm 1 mps 768 mmHg 56%
    15:00 +5°C° 0 mm 1 mps 768 mmHg 60%
    16:00 +4°C° 0 mm 1 mps 767 mmHg 64%
    17:00 +3°C° 0 mm 1 mps 767 mmHg 67%
    18:00 +3°C° 0 mm 1 mps 767 mmHg 70%
    19:00 +2°C° 0 mm 2 mps 767 mmHg 73%
    20:00 +1°C° 0 mm 2 mps 767 mmHg 76%
    21:00 +1°C° 0 mm 2 mps 766 mmHg 79%
    22:00 0°C° 0 mm 3 mps 766 mmHg 81%
    23:00 -1°C° 0 mm 4 mps 766 mmHg 84%

    Tomorrow, 19 November, Monday

    Time Temperature Precipitation Wind Pressure Humidity
    00:00 -2°C° 0 mm 4 mps 766 mmHg 85%
    01:00 -2°C° 0 mm 4 mps 765 mmHg 86%
    02:00 -2°C° 0 mm 4 mps 765 mmHg 86%
    03:00 -2°C° 0 mm 5 mps 765 mmHg 84%
    04:00 -1°C° 0 mm 5 mps 764 mmHg 81%
    05:00 -2°C° 0 mm 6 mps 764 mmHg 78%
    06:00 -1°C° 0.2 mm 6 mps 764 mmHg 78%
    07:00 -1°C° 0.2 mm 7 mps 763 mmHg 78%
    08:00 -1°C° 0.2 mm 8 mps 763 mmHg 79%
    09:00 0°C° 0.8 mm 8 mps 763 mmHg 80%
    10:00 +1°C° 0.8 mm 9 mps 762 mmHg 82%
    11:00 +1°C° 0.8 mm 10 mps 762 mmHg 84%
    12:00 +1°C° 0.8 mm 10 mps 761 mmHg 84%
    13:00 +2°C° 0.8 mm 11 mps 760 mmHg 84%
    14:00 +2°C° 0.8 mm 11 mps 760 mmHg 84%
    15:00 +2°C° 1.1 mm 11 mps 759 mmHg 84%
    16:00 0°C° 1.1 mm 12 mps 758 mmHg 84%
    17:00 0°C° 1.1 mm 12 mps 758 mmHg 85%
    18:00 +2°C° 0.9 mm 11 mps 757 mmHg 87%
    19:00 +2°C° 0.9 mm 10 mps 757 mmHg 89%
    20:00 +3°C° 0.9 mm 9 mps 757 mmHg 90%
    21:00 +3°C° 0.8 mm 9 mps 757 mmHg 91%
    22:00 +5°C° 0.8 mm 10 mps 757 mmHg 92%
    23:00 +6°C° 0.8 mm 10 mps 757 mmHg 93%

    Day after tomorrow, 20 November, Tuesday

    Time Temperature Precipitation Wind Pressure Humidity
    00:00 +4°C° 0.4 mm 11 mps 758 mmHg 92%
    01:00 +3°C° 0.4 mm 11 mps 758 mmHg 91%
    02:00 +2°C° 0.4 mm 12 mps 759 mmHg 90%
    03:00 +2°C° 0 mm 11 mps 759 mmHg 88%
    04:00 +1°C° 0 mm 11 mps 760 mmHg 87%
    05:00 0°C° 0 mm 10 mps 760 mmHg 86%
    06:00 0°C° 0 mm 10 mps 761 mmHg 85%
    07:00 0°C° 0 mm 9 mps 762 mmHg 85%
    08:00 0°C° 0 mm 9 mps 763 mmHg 85%
    09:00 0°C° 0 mm 8 mps 763 mmHg 83%
    10:00 +1°C° 0 mm 8 mps 764 mmHg 82%
    11:00 +1°C° 0 mm 8 mps 764 mmHg 80%
    12:00 +2°C° 0 mm 7 mps 765 mmHg 80%
    13:00 +2°C° 0 mm 7 mps 765 mmHg 80%
    14:00 +2°C° 0 mm 6 mps 765 mmHg 79%
    15:00 +2°C° 0 mm 6 mps 765 mmHg 81%
    16:00 +2°C° 0 mm 5 mps 765 mmHg 83%
    17:00 +1°C° 0 mm 5 mps 766 mmHg 85%
    18:00 +1°C° 0 mm 5 mps 766 mmHg 86%
    19:00 +1°C° 0 mm 4 mps 766 mmHg 87%
    20:00 0°C° 0 mm 4 mps 766 mmHg 88%
    21:00 0°C° 0 mm 4 mps 766 mmHg 89%
    22:00 0°C° 0 mm 3 mps 766 mmHg 91%
    23:00 0°C° 0 mm 3 mps 766 mmHg 93%

    21 November, Wednesday

    Time Temperature Precipitation Wind Pressure Humidity
    00:00 0°C° 0 mm 3 mps 765 mmHg 93%
    01:00 0°C° 0 mm 3 mps 765 mmHg 94%
    02:00 -1°C° 0 mm 3 mps 765 mmHg 94%
    03:00 -1°C° 0.1 mm 3 mps 765 mmHg 94%
    04:00 -2°C° 0.1 mm 4 mps 765 mmHg 93%
    05:00 -2°C° 0.1 mm 4 mps 765 mmHg 93%
    06:00 -1°C° 0.2 mm 4 mps 765 mmHg 91%
    07:00 -1°C° 0.2 mm 5 mps 765 mmHg 90%
    08:00 0°C° 0.2 mm 5 mps 765 mmHg 89%
    09:00 0°C° 0.1 mm 5 mps 765 mmHg 86%
    10:00 +1°C° 0.1 mm 5 mps 765 mmHg 83%
    11:00 +2°C° 0.1 mm 5 mps 764 mmHg 80%
    12:00 +2°C° 0 mm 5 mps 764 mmHg 79%
    13:00 +2°C° 0 mm 6 mps 764 mmHg 78%
    14:00 +3°C° 0 mm 6 mps 763 mmHg 77%
    15:00 +2°C° 0 mm 6 mps 763 mmHg 78%
    16:00 +2°C° 0 mm 6 mps 763 mmHg 80%
    17:00 0°C° 0 mm 7 mps 763 mmHg 81%
    18:00 0°C° 0.1 mm 7 mps 763 mmHg 81%
    19:00 0°C° 0.1 mm 7 mps 763 mmHg 81%
    20:00 0°C° 0.1 mm 7 mps 763 mmHg 82%
    21:00 0°C° 0.2 mm 7 mps 763 mmHg 82%
    22:00 0°C° 0.2 mm 7 mps 763 mmHg 82%
    23:00 -1°C° 0.2 mm 8 mps 763 mmHg 83%

    22 November, Thursday

    Time Temperature Precipitation Wind Pressure Humidity
    00:00 -1°C° 0.2 mm 8 mps 763 mmHg 83%
    01:00 -1°C° 0.2 mm 8 mps 763 mmHg 84%
    02:00 -1°C° 0.2 mm 8 mps 763 mmHg 84%
    03:00 -1°C° 0.1 mm 8 mps 763 mmHg 84%
    04:00 -1°C° 0.1 mm 8 mps 764 mmHg 85%
    05:00 -1°C° 0.1 mm 8 mps 764 mmHg 85%
    06:00 -1°C° 0.1 mm 8 mps 764 mmHg 84%
    07:00 -1°C° 0.1 mm 8 mps 764 mmHg 82%
    08:00 -1°C° 0.1 mm 8 mps 765 mmHg 81%
    09:00 -1°C° 0 mm 8 mps 765 mmHg 78%
    10:00 0°C° 0 mm 8 mps 765 mmHg 74%
    11:00 0°C° 0 mm 8 mps 765 mmHg 70%
    12:00 +1°C° 0 mm 8 mps 765 mmHg 68%
    13:00 +1°C° 0 mm 8 mps 765 mmHg 65%
    14:00 +2°C° 0 mm 8 mps 766 mmHg 63%
    15:00 +2°C° 0 mm 7 mps 766 mmHg 64%
    16:00 0°C° 0 mm 7 mps 766 mmHg 66%
    17:00 -1°C° 0 mm 7 mps 767 mmHg 67%
    18:00 -2°C° 0 mm 7 mps 767 mmHg 69%
    19:00 -3°C° 0 mm 7 mps 767 mmHg 71%
    20:00 -3°C° 0 mm 7 mps 768 mmHg 73%
    21:00 -4°C° 0 mm 7 mps 768 mmHg 75%
    22:00 -4°C° 0 mm 7 mps 768 mmHg 77%
    23:00 -6°C° 0 mm 7 mps 769 mmHg 80%

    23 November, Friday

    Time Temperature Precipitation Wind Pressure Humidity
    00:00 -6°C° 0 mm 7 mps 769 mmHg 80%
    01:00 -6°C° 0 mm 7 mps 769 mmHg 80%
    02:00 -5°C° 0 mm 6 mps 769 mmHg 81%
    03:00 -5°C° 0 mm 6 mps 769 mmHg 80%
    04:00 -5°C° 0 mm 6 mps 769 mmHg 80%
    05:00 -5°C° 0 mm 6 mps 770 mmHg 80%
    06:00 -5°C° 0 mm 6 mps 770 mmHg 79%
    07:00 -5°C° 0 mm 6 mps 770 mmHg 78%
    08:00 -5°C° 0 mm 6 mps 771 mmHg 76%
    09:00 -4°C° 0 mm 6 mps 771 mmHg 70%
    10:00 -3°C° 0 mm 6 mps 771 mmHg 65%
    11:00 -1°C° 0 mm 5 mps 771 mmHg 59%
    12:00 0°C° 0 mm 5 mps 771 mmHg 57%
    13:00 0°C° 0 mm 5 mps 771 mmHg 56%
    14:00 +1°C° 0 mm 5 mps 770 mmHg 54%
    15:00 0°C° 0 mm 5 mps 770 mmHg 60%
    16:00 -1°C° 0 mm 5 mps 770 mmHg 66%
    17:00 -2°C° 0 mm 5 mps 770 mmHg 71%
    18:00 -3°C° 0 mm 4 mps 770 mmHg 73%
    19:00 -3°C° 0 mm 4 mps 771 mmHg 75%
    20:00 -4°C° 0 mm 4 mps 771 mmHg 77%
    21:00 -4°C° 0 mm 4 mps 771 mmHg 77%
    22:00 -4°C° 0 mm 4 mps 770 mmHg 78%
    23:00 -4°C° 0 mm 4 mps 770 mmHg 79%
    Show more